When you browse on this site, cookies collect data to enhance your experience and personalize the content and advertising you see.
Visit our Privacy Policy to learn more. By continuing to use the site, you agree to this use of cookies and data.
  • In Hungary
  • List of Countries
  • For 7 days
  • Water Temperature
  • Weather Map
  • News
  • Weather Widgets
  • user-avatar
    Login

    Hourly Weather Sheveli

    Today, 21 January, Tuesday

    Time Temperature Precipitation Wind Pressure Humidity
    00:00 -2°C° 0 mm 5 mps 742 mmHg 88%
    01:00 -2°C° 0 mm 5 mps 742 mmHg 87%
    02:00 -1°C° 0 mm 5 mps 741 mmHg 87%
    03:00 -2°C° 0.2 mm 6 mps 740 mmHg 88%
    04:00 -2°C° 0.2 mm 6 mps 739 mmHg 89%
    05:00 -2°C° 0.2 mm 6 mps 738 mmHg 90%
    06:00 -1°C° 0.1 mm 6 mps 737 mmHg 90%
    07:00 -1°C° 0.1 mm 6 mps 737 mmHg 90%
    08:00 +1°C° 0.1 mm 6 mps 736 mmHg 91%
    09:00 +1°C° 0.1 mm 6 mps 736 mmHg 91%
    10:00 +1°C° 0.1 mm 6 mps 735 mmHg 91%
    11:00 +2°C° 0.1 mm 6 mps 735 mmHg 91%
    12:00 +2°C° 0.1 mm 6 mps 734 mmHg 91%
    13:00 +2°C° 0.1 mm 6 mps 733 mmHg 91%
    14:00 +3°C° 0.1 mm 6 mps 733 mmHg 91%
    15:00 +3°C° 1.2 mm 6 mps 731 mmHg 92%
    16:00 +3°C° 1.2 mm 6 mps 730 mmHg 92%
    17:00 +3°C° 1.2 mm 6 mps 729 mmHg 93%
    18:00 +2°C° 0.4 mm 6 mps 730 mmHg 87%
    19:00 +2°C° 0.4 mm 7 mps 730 mmHg 81%
    20:00 0°C° 0.4 mm 7 mps 730 mmHg 75%
    21:00 -1°C° 0 mm 7 mps 731 mmHg 75%
    22:00 -2°C° 0 mm 6 mps 731 mmHg 75%
    23:00 -3°C° 0 mm 6 mps 731 mmHg 75%

    Tomorrow, 22 January, Wednesday

    Time Temperature Precipitation Wind Pressure Humidity
    00:00 -3°C° 0 mm 6 mps 731 mmHg 75%
    01:00 -3°C° 0 mm 6 mps 731 mmHg 75%
    02:00 -3°C° 0 mm 6 mps 731 mmHg 75%
    03:00 -4°C° 0 mm 6 mps 730 mmHg 77%
    04:00 -4°C° 0 mm 6 mps 729 mmHg 80%
    05:00 -4°C° 0 mm 6 mps 729 mmHg 82%
    06:00 -4°C° 0.1 mm 6 mps 728 mmHg 84%
    07:00 -4°C° 0.1 mm 5 mps 728 mmHg 86%
    08:00 -4°C° 0.1 mm 5 mps 727 mmHg 87%
    09:00 -4°C° 0.4 mm 5 mps 727 mmHg 82%
    10:00 -2°C° 0.4 mm 5 mps 726 mmHg 77%
    11:00 -3°C° 0.4 mm 6 mps 726 mmHg 73%
    12:00 -3°C° 0.1 mm 6 mps 726 mmHg 70%
    13:00 -2°C° 0.1 mm 5 mps 726 mmHg 68%
    14:00 -2°C° 0.1 mm 5 mps 726 mmHg 66%
    15:00 -4°C° 0 mm 5 mps 726 mmHg 71%
    16:00 -5°C° 0 mm 5 mps 727 mmHg 77%
    17:00 -5°C° 0 mm 5 mps 727 mmHg 83%
    18:00 -5°C° 0 mm 5 mps 728 mmHg 82%
    19:00 -5°C° 0 mm 5 mps 728 mmHg 81%
    20:00 -5°C° 0 mm 5 mps 728 mmHg 80%
    21:00 -5°C° 0.1 mm 5 mps 729 mmHg 79%
    22:00 -6°C° 0.1 mm 6 mps 729 mmHg 78%
    23:00 -6°C° 0.1 mm 6 mps 730 mmHg 77%

    Day after tomorrow, 23 January, Thursday

    Time Temperature Precipitation Wind Pressure Humidity
    00:00 -6°C° 0 mm 6 mps 731 mmHg 75%
    01:00 -8°C° 0 mm 6 mps 732 mmHg 72%
    02:00 -9°C° 0 mm 7 mps 732 mmHg 69%
    03:00 -9°C° 0 mm 6 mps 733 mmHg 67%
    04:00 -9°C° 0 mm 6 mps 733 mmHg 65%
    05:00 -9°C° 0 mm 6 mps 734 mmHg 63%
    06:00 -9°C° 0 mm 6 mps 734 mmHg 61%
    07:00 -9°C° 0 mm 6 mps 734 mmHg 59%
    08:00 -9°C° 0 mm 6 mps 735 mmHg 57%
    09:00 -9°C° 0 mm 6 mps 735 mmHg 58%
    10:00 -8°C° 0 mm 7 mps 735 mmHg 58%
    11:00 -8°C° 0 mm 7 mps 736 mmHg 59%
    12:00 -7°C° 0 mm 7 mps 736 mmHg 57%
    13:00 -6°C° 0 mm 6 mps 737 mmHg 55%
    14:00 -6°C° 0 mm 6 mps 737 mmHg 53%
    15:00 -7°C° 0 mm 5 mps 738 mmHg 56%
    16:00 -7°C° 0 mm 5 mps 738 mmHg 59%
    17:00 -8°C° 0 mm 4 mps 739 mmHg 62%
    18:00 -8°C° 0 mm 4 mps 739 mmHg 64%
    19:00 -7°C° 0 mm 3 mps 739 mmHg 66%
    20:00 -6°C° 0 mm 2 mps 739 mmHg 67%
    21:00 -6°C° 0 mm 2 mps 739 mmHg 68%
    22:00 -6°C° 0 mm 2 mps 739 mmHg 69%
    23:00 -7°C° 0 mm 3 mps 739 mmHg 70%

    24 January, Friday

    Time Temperature Precipitation Wind Pressure Humidity
    00:00 -6°C° 0 mm 3 mps 739 mmHg 74%
    01:00 -6°C° 0 mm 3 mps 738 mmHg 77%
    02:00 -6°C° 0 mm 3 mps 738 mmHg 81%
    03:00 -5°C° 0.1 mm 4 mps 737 mmHg 85%
    04:00 -6°C° 0.1 mm 5 mps 736 mmHg 88%
    05:00 -5°C° 0.1 mm 5 mps 735 mmHg 92%
    06:00 -5°C° 0.3 mm 5 mps 735 mmHg 92%
    07:00 -5°C° 0.3 mm 5 mps 734 mmHg 92%
    08:00 -4°C° 0.3 mm 4 mps 734 mmHg 93%
    09:00 -3°C° 0.1 mm 4 mps 734 mmHg 94%
    10:00 -1°C° 0.1 mm 4 mps 733 mmHg 94%
    11:00 0°C° 0.1 mm 4 mps 733 mmHg 95%
    12:00 0°C° 0 mm 4 mps 733 mmHg 94%
    13:00 +1°C° 0 mm 4 mps 733 mmHg 93%
    14:00 +1°C° 0 mm 4 mps 733 mmHg 92%
    15:00 +1°C° 0 mm 4 mps 733 mmHg 92%
    16:00 +1°C° 0 mm 4 mps 733 mmHg 92%
    17:00 +1°C° 0 mm 4 mps 733 mmHg 92%
    18:00 +1°C° 0.1 mm 4 mps 734 mmHg 93%
    19:00 +1°C° 0.1 mm 3 mps 734 mmHg 94%
    20:00 +1°C° 0.1 mm 3 mps 734 mmHg 95%
    21:00 +1°C° 0.1 mm 3 mps 734 mmHg 95%
    22:00 +1°C° 0.1 mm 3 mps 734 mmHg 95%
    23:00 +1°C° 0.1 mm 3 mps 734 mmHg 96%

    25 January, Saturday

    Time Temperature Precipitation Wind Pressure Humidity
    00:00 +1°C° 0.1 mm 3 mps 733 mmHg 96%
    01:00 0°C° 0.1 mm 4 mps 733 mmHg 96%
    02:00 0°C° 0.1 mm 4 mps 733 mmHg 97%
    03:00 0°C° 0.3 mm 4 mps 733 mmHg 97%
    04:00 0°C° 0.3 mm 4 mps 733 mmHg 96%
    05:00 0°C° 0.3 mm 4 mps 732 mmHg 96%
    06:00 0°C° 0.3 mm 4 mps 732 mmHg 96%
    07:00 0°C° 0.3 mm 4 mps 732 mmHg 96%
    08:00 0°C° 0.3 mm 4 mps 732 mmHg 96%
    09:00 0°C° 0.3 mm 4 mps 733 mmHg 96%
    10:00 +1°C° 0.3 mm 4 mps 733 mmHg 96%
    11:00 +1°C° 0.3 mm 4 mps 733 mmHg 96%
    12:00 +1°C° 0.3 mm 4 mps 733 mmHg 96%
    13:00 +2°C° 0.3 mm 3 mps 734 mmHg 96%
    14:00 +2°C° 0.3 mm 3 mps 734 mmHg 97%
    15:00 +1°C° 0.1 mm 3 mps 734 mmHg 96%
    16:00 +1°C° 0.1 mm 3 mps 735 mmHg 96%
    17:00 +2°C° 0.1 mm 2 mps 735 mmHg 96%
    18:00 +2°C° 0 mm 2 mps 735 mmHg 96%
    19:00 +2°C° 0 mm 2 mps 735 mmHg 96%
    20:00 +1°C° 0 mm 2 mps 736 mmHg 96%
    21:00 +1°C° 0 mm 2 mps 736 mmHg 97%
    22:00 +1°C° 0 mm 2 mps 736 mmHg 97%
    23:00 +1°C° 0 mm 2 mps 736 mmHg 97%

    26 January, Sunday

    Time Temperature Precipitation Wind Pressure Humidity
    00:00 +1°C° 0 mm 2 mps 736 mmHg 97%
    01:00 +1°C° 0 mm 2 mps 737 mmHg 97%
    02:00 +1°C° 0 mm 2 mps 737 mmHg 97%
    03:00 +2°C° 0 mm 1 mps 737 mmHg 97%
    04:00 +2°C° 0 mm 1 mps 737 mmHg 97%
    05:00 +2°C° 0 mm 1 mps 737 mmHg 97%
    06:00 +1°C° 0 mm 2 mps 737 mmHg 97%
    07:00 +1°C° 0 mm 2 mps 737 mmHg 97%
    08:00 +1°C° 0 mm 2 mps 737 mmHg 97%
    09:00 +1°C° 0 mm 2 mps 737 mmHg 97%
    10:00 +1°C° 0 mm 2 mps 737 mmHg 97%
    11:00 +1°C° 0 mm 3 mps 737 mmHg 96%
    12:00 +1°C° 0 mm 3 mps 737 mmHg 95%
    13:00 +1°C° 0 mm 3 mps 737 mmHg 93%
    14:00 +1°C° 0 mm 3 mps 737 mmHg 92%
    15:00 0°C° 0 mm 3 mps 736 mmHg 90%
    16:00 0°C° 0 mm 3 mps 736 mmHg 88%
    17:00 0°C° 0 mm 3 mps 736 mmHg 87%
    18:00 0°C° 0 mm 3 mps 736 mmHg 89%
    19:00 -1°C° 0 mm 4 mps 735 mmHg 90%
    20:00 -1°C° 0 mm 4 mps 735 mmHg 92%
    21:00 -1°C° 0 mm 4 mps 735 mmHg 92%
    22:00 -1°C° 0 mm 5 mps 734 mmHg 92%
    23:00 -1°C° 0 mm 5 mps 734 mmHg 91%
    Show more